Temperature
16 16 16 16 16 16 16 16 16 16 16 17 17 17 17 17 17 17 16 16 16 16 16 16 15 15 15 15 15 15 15 14 14 14 14 14 14 14
16 16 16 16 16 16 16 16 16 16 16 16 16 16 17 17 16 16 16 16 16 16 16 15 15 15 15 15 15 15 14 14 14 14 14 14 14 14
16 16 16 16 16 16 16 16 16 16 16 16 16 16 16 16 16 16 16 16 16 16 16 15 15 15 15 15 15 14 14 14 14 14 14 14 13 13
16 16 16 16 16 16 15 15 15 15 15 15 15 15 16 16 16 16 16 15 15 15 15 15 15 15 15 14 14 14 14 14 14 13 13 13 13 13
15 15 15 15 15 15 15 15 15 15 15 15 15 15 15 15 15 15 15 15 15 15 15 15 15 14 14 14 14 14 13 13 13 13 13 13 13 12
15 15 15 15 15 15 15 15 15 15 15 14 14 14 14 14 14 14 14 14 14 14 14 14 14 14 13 13 13 13 13 13 13 12 12 12 12 12
15 15 14 14 14 14 14 14 14 14 14 14 14 14 14 14 14 14 14 14 13 13 13 13 13 13 12 12 12 12 12 12 12 12 11 11 11 11
14 14 14 14 14 14 14 14 14 14 14 13 13 13 13 13 13 13 13 13 13 12 12 12 12 12 11 11 11 11 11 11 11 11 11 10 10 10
14 14 14 14 14 14 14 14 13 13 13 13 13 12 12 12 12 12 12 12 12 11 11 11 11 11 10 10 10 10 10 10 10 10 10 10 9 9
14 13 13 13 13 13 13 13 13 13 12 12 12 12 12 11 11 11 11 11 11 10 10 10 10 10 9 9 9 9 9 9 9 9 9 9 9 8
13 13 13 13 13 12 12 12 12 12 11 11 11 11 11 11 11 11 10 10 10 10 9 9 9 9 9 9 8 8 8 8 8 8 8 8 8 8
13 12 12 12 12 12 12 11 11 11 10 10 10 10 10 10 10 10 9 9 9 9 8 8 8 8 8 8 8 7 7 7 7 7 7 7 7 7
12 11 11 11 11 11 11 10 10 10 10 10 9 9 9 9 9 9 8 8 8 8 8 8 7 7 7 7 7 7 7 7 7 6 6 6 6 6
11 10 10 10 10 10 10 9 9 9 9 9 8 8 8 7 7 7 7 8 7 7 7 7 7 6 6 6 6 6 6 6 6 6 6 6 6 5
10 10 9 9 9 9 9 9 8 8 8 8 7 7 6 6 6 6 6 6 6 6 6 6 6 6 6 6 5 5 5 5 5 5 5 5 5 5
9 9 9 9 8 8 8 8 7 7 7 7 6 6 6 6 6 6 6 6 6 5 5 5 5 5 5 5 5 5 5 5 4 4 4 4 4 4
9 8 8 8 8 7 7 7 7 6 6 6 6 5 5 5 5 5 5 5 5 5 5 5 5 5 5 5 4 4 4 4 4 4 4 4 4 4
8 8 7 7 7 6 6 6 6 6 5 5 5 5 5 5 5 5 4 4 4 4 4 4 4 4 4 4 4 3 3 3 3 3 3 3 3 3
8 7 7 6 6 6 6 5 5 5 5 5 5 5 4 4 4 4 4 4 4 4 3 3 3 3 3 3 3 3 3 3 3 3 3 3 3 3
7 6 6 6 5 5 5 5 5 5 5 4 4 4 4 4 4 3 3 3 3 3 3 3 3 3 3 2 2 3 3 3 3 3 3 3 3 3
6 6 5 5 5 5 5 4 4 4 4 4 4 4 3 3 3 3 3 3 3 2 2 2 2 2 2 2 2 2 2 2 2 2 2 2 2 2
5 5 5 5 5 4 4 4 4 4 4 4 3 3 3 3 3 3 2 2 2 2 2 2 2 2 2 2 2 2 2 2 2 2 2 2 2 2
5 5 5 4 4 4 4 4 4 4 3 3 3 3 3 3 2 2 2 2 2 2 2 2 2 2 2 2 2 2 2 2 2 2 2 2 2 2
Wind_Speed
5 5 4 3 4 4 3 3 4 3 3 3 2 2 4 5 7 7 8 10 12 13 13 13 12 12 12 12 12 12 12 11 11 10 10 10 9 9
4 5 4 3 3 3 3 3 3 4 4 3 3 2 3 3 3 4 6 7 8 9 10 10 11 12 12 12 11 11 11 11 10 10 10 10 9 9
4 5 5 4 3 3 3 3 3 3 4 3 2 2 1 2 2 2 2 3 3 5 7 8 9 10 10 10 10 10 10 9 9 8 8 8 8 8
5 5 5 4 4 3 3 4 4 4 4 4 2 1 2 2 2 1 2 1 1 2 2 3 4 5 5 6 6 6 6 6 6 6 6 6 6 6
5 5 5 4 4 3 3 3 3 3 3 3 2 1 1 1 2 2 2 3 3 3 3 2 2 2 2 1 1 1 2 2 2 2 3 3 3 4
2 3 3 3 4 4 4 4 3 3 2 2 2 1 1 1 1 1 1 2 3 5 6 6 7 7 6 5 4 4 3 3 2 2 1 1 2 2
1 1 1 2 2 3 3 3 3 2 2 1 1 1 1 0 1 1 0 1 2 3 3 5 6 7 7 8 8 8 7 6 5 4 4 3 3 2
1 1 1 1 1 2 3 3 3 3 3 2 2 1 1 1 1 1 1 0 0 2 2 3 4 4 6 7 8 8 8 8 7 7 6 5 4 4
2 1 1 1 2 3 5 6 6 5 3 3 2 1 1 1 1 0 1 1 0 1 1 2 2 3 5 8 10 10 9 8 7 7 6 5 5 5
3 3 3 2 2 4 5 5 5 5 4 3 3 2 2 1 0 1 1 2 2 3 2 1 2 2 4 7 10 10 9 9 8 7 6 5 5 5
6 6 5 4 4 5 6 6 6 6 11 13 12 11 11 10 6 3 3 3 2 3 3 2 2 2 2 4 8 10 10 10 9 8 8 7 6 5
5 6 8 7 8 7 6 6 6 5 6 8 10 12 12 14 14 7 3 2 2 2 4 2 2 2 2 2 5 8 8 9 9 9 9 8 7 4
5 5 6 11 12 11 9 7 7 7 7 8 8 8 9 9 10 11 8 4 4 3 3 2 2 2 1 1 2 4 6 6 7 7 9 9 7 5
6 5 7 13 14 13 11 12 12 10 8 8 8 7 7 7 7 9 11 11 9 6 4 3 2 1 1 1 2 3 4 5 6 5 6 7 6 6
8 11 12 14 13 12 14 14 10 8 7 7 7 6 5 5 5 6 8 9 10 10 9 6 3 1 1 1 1 2 3 3 5 5 5 5 5 4
9 12 14 15 12 11 10 9 8 7 6 6 5 4 4 5 5 4 4 5 5 6 9 10 7 3 2 2 2 2 3 3 4 5 5 4 4 4
8 7 7 7 8 7 7 7 7 6 6 5 5 4 5 5 5 5 4 5 5 5 6 6 8 6 3 2 2 3 4 4 4 5 4 5 4 5
9 8 7 7 7 6 6 6 6 5 5 4 5 4 4 5 5 5 5 5 5 5 5 5 5 4 3 3 2 2 4 4 5 5 4 4 5 5
9 8 7 6 6 6 5 5 4 4 4 4 5 4 4 4 4 5 5 5 5 5 5 4 4 4 4 4 4 3 3 5 5 5 4 4 5 6
7 6 6 5 5 5 5 5 5 5 4 4 4 4 4 4 4 4 4 4 4 4 5 5 5 4 3 3 4 4 5 4 4 5 5 4 4 6
6 5 5 5 4 4 4 4 4 4 4 4 4 4 4 4 4 4 4 5 4 4 5 5 5 6 3 2 3 4 5 6 5 4 4 5 5 5
5 5 4 4 4 4 4 4 4 4 4 4 4 3 3 3 3 4 4 4 4 4 4 4 5 4 3 4 5 6 6 7 7 7 5 4 4 5
4 4 3 3 3 3 3 3 4 3 3 3 3 3 3 3 3 3 3 3 3 4 4 4 5 4 4 4 5 5 7 7 6 6 6 8 8 8
Wind_Direction
211 209 213 221 210 210 198 186 186 227 262 271 275 287 272 255 253 244 243 246 242 241 241 241 240 239 240 242 242 242 241 243 246 250 253 258 262 268
208 206 213 221 214 208 208 208 203 203 237 259 260 289 300 283 270 249 250 252 249 241 238 238 238 237 237 240 241 241 242 243 246 249 254 257 261 265
214 209 217 207 206 210 207 206 208 200 228 261 268 296 311 317 331 299 269 260 266 257 246 241 238 239 238 237 238 239 240 242 244 246 250 256 260 263
223 217 226 210 205 211 207 212 211 206 212 241 270 310 314 329 346 347 349 323 303 320 271 245 236 233 236 234 232 234 240 245 247 248 253 258 264 267
220 217 222 202 207 213 210 216 217 208 204 218 249 286 314 1 21 11 21 19 25 28 37 54 78 102 112 126 143 175 209 223 229 243 255 264 269 274
216 217 207 197 211 213 215 217 211 201 191 204 239 272 296 348 51 347 357 30 29 35 47 57 66 73 73 77 77 79 86 84 75 53 23 343 318 305
165 172 162 154 178 191 197 196 182 174 167 185 235 263 287 290 241 248 260 44 44 33 43 45 52 57 58 64 69 71 73 71 64 55 40 28 18 6
142 135 122 109 112 116 127 129 139 170 191 195 210 224 259 256 240 185 187 140 31 11 49 42 50 53 48 55 63 68 66 67 62 57 52 44 41 36
114 105 93 59 86 101 86 78 70 69 110 157 160 194 224 244 206 161 132 126 140 345 71 53 38 44 41 46 54 61 59 58 55 54 49 40 31 25
76 74 79 57 68 103 101 86 72 56 63 85 103 83 64 45 152 187 160 118 84 34 40 62 30 39 36 40 47 52 50 45 43 43 38 32 26 18
67 64 69 68 69 103 108 101 85 67 67 75 75 68 59 53 60 84 94 99 68 31 18 54 32 29 31 27 33 42 46 45 46 45 42 36 29 24
69 61 63 71 67 81 99 103 94 77 75 68 62 57 54 51 50 53 67 86 80 45 12 24 25 27 45 25 20 23 31 34 36 38 34 30 24 19
81 65 59 70 72 72 78 85 93 91 79 74 67 59 52 49 47 50 53 65 80 63 11 20 40 35 37 352 358 9 18 16 15 18 20 21 20 20
93 82 76 76 74 73 76 81 84 84 80 73 66 58 52 49 47 53 58 62 65 69 38 42 56 39 32 5 348 348 355 6 7 3 3 4 12 16
90 89 83 78 75 72 70 73 75 79 81 78 72 59 47 44 49 51 51 56 55 48 40 37 40 39 49 18 347 345 341 349 360 357 353 354 351 350
88 84 79 74 73 72 68 65 66 73 81 81 75 63 53 50 47 44 47 43 47 34 27 31 31 39 48 36 26 5 354 345 347 347 339 335 343 350
99 84 77 74 72 68 65 61 62 65 69 69 75 71 63 57 47 39 44 47 47 31 17 13 17 30 40 39 35 17 2 354 349 346 339 338 341 343
94 89 83 80 78 75 73 66 58 59 60 69 71 69 64 59 54 46 48 50 46 33 21 9 7 19 29 43 21 356 355 347 342 341 337 331 335 342
88 88 86 84 81 76 73 69 60 53 56 66 66 63 63 61 60 52 46 44 40 30 20 13 15 20 19 8 355 340 328 331 333 339 337 328 321 326
83 90 89 86 84 80 74 69 64 60 59 60 60 59 60 64 61 53 45 39 32 26 20 17 13 4 355 340 327 322 324 318 326 328 329 324 313 307
81 81 84 86 86 82 76 71 69 65 61 61 58 56 57 60 56 47 41 34 30 24 17 5 345 329 310 316 333 341 338 330 310 304 318 324 331 336
87 86 83 85 85 84 80 77 72 67 64 61 58 54 53 59 54 44 37 31 22 14 1 353 351 2 15 6 351 340 339 343 347 343 319 292 322 332
95 95 91 88 85 86 87 83 76 65 58 58 56 51 50 48 39 36 31 25 16 11 6 2 3 7 6 357 347 340 343 346 347 346 348 344 330 311
Height
1569 1570 1571 1572 1573 1574 1575 1575 1576 1575 1575 1575 1575 1575 1575 1575 1575 1576 1576 1576 1576 1577 1577 1577 1577 1577 1577 1578 1578 1578 1578 1578 1579 1579 1579 1579 1579 1578
1566 1567 1567 1568 1569 1570 1571 1572 1572 1573 1572 1571 1572 1572 1572 1572 1572 1572 1572 1572 1572 1573 1573 1573 1573 1573 1573 1574 1574 1574 1574 1574 1574 1574 1574 1574 1574 1574
1562 1563 1563 1564 1565 1566 1567 1568 1568 1568 1568 1568 1568 1568 1568 1568 1568 1568 1568 1568 1568 1568 1569 1569 1569 1569 1569 1569 1569 1569 1569 1570 1570 1569 1569 1569 1569 1569
1558 1559 1559 1560 1561 1562 1563 1563 1564 1564 1564 1564 1564 1565 1564 1564 1564 1564 1564 1564 1564 1564 1564 1564 1564 1564 1564 1564 1564 1564 1564 1564 1564 1564 1564 1564 1564 1563
1554 1555 1555 1556 1556 1557 1558 1559 1559 1560 1560 1560 1560 1561 1560 1560 1560 1560 1560 1560 1560 1560 1559 1559 1559 1559 1559 1559 1559 1559 1559 1559 1559 1559 1559 1559 1559 1558
1550 1550 1551 1551 1552 1553 1554 1555 1555 1556 1556 1556 1556 1556 1556 1556 1556 1556 1556 1556 1556 1555 1555 1555 1555 1554 1554 1554 1554 1554 1554 1554 1554 1554 1554 1554 1554 1553
1547 1547 1547 1548 1549 1550 1551 1551 1552 1552 1552 1552 1552 1552 1552 1552 1552 1552 1552 1552 1552 1552 1551 1551 1551 1550 1550 1550 1550 1550 1550 1550 1550 1550 1550 1549 1549 1548
1543 1544 1545 1545 1546 1547 1547 1548 1548 1548 1548 1548 1548 1548 1548 1549 1549 1548 1548 1548 1548 1549 1548 1548 1548 1547 1547 1547 1546 1547 1547 1547 1547 1547 1546 1546 1545 1544
1541 1542 1542 1543 1543 1543 1544 1544 1544 1545 1545 1545 1545 1545 1545 1545 1546 1545 1545 1545 1545 1545 1545 1545 1545 1545 1545 1544 1544 1543 1544 1544 1544 1543 1543 1543 1542 1541
1539 1540 1540 1540 1541 1541 1541 1541 1542 1542 1542 1542 1542 1542 1543 1543 1543 1543 1542 1542 1542 1542 1542 1543 1543 1542 1543 1542 1541 1541 1542 1541 1540 1540 1540 1539 1538 1537
1538 1538 1538 1538 1539 1539 1539 1539 1539 1539 1540 1540 1540 1540 1540 1540 1540 1540 1540 1540 1540 1540 1540 1540 1540 1540 1540 1540 1540 1540 1539 1538 1538 1537 1536 1536 1535 1534
1536 1536 1537 1537 1537 1538 1538 1537 1537 1538 1538 1538 1538 1538 1538 1538 1538 1538 1539 1539 1539 1539 1539 1539 1539 1539 1539 1539 1538 1538 1537 1536 1536 1535 1534 1533 1532 1530
1535 1536 1536 1537 1537 1537 1537 1537 1537 1538 1538 1538 1538 1537 1537 1537 1537 1537 1537 1538 1538 1538 1538 1538 1538 1538 1538 1537 1537 1536 1535 1534 1534 1533 1532 1530 1529 1527
1534 1535 1536 1536 1536 1537 1537 1537 1538 1538 1538 1538 1538 1537 1537 1537 1537 1537 1537 1537 1537 1537 1537 1537 1536 1536 1536 1535 1534 1534 1533 1533 1532 1530 1529 1528 1526 1525
1535 1536 1537 1537 1537 1537 1538 1538 1538 1539 1539 1538 1538 1539 1539 1539 1539 1539 1539 1538 1538 1537 1537 1536 1536 1535 1534 1534 1533 1532 1532 1531 1530 1529 1527 1526 1524 1522
1536 1537 1538 1538 1538 1539 1539 1539 1539 1540 1540 1540 1540 1541 1541 1541 1540 1540 1540 1539 1538 1538 1537 1536 1535 1535 1534 1533 1532 1531 1530 1529 1528 1527 1525 1523 1522 1520
1538 1538 1539 1539 1540 1540 1541 1541 1542 1542 1542 1542 1542 1542 1542 1542 1542 1541 1540 1539 1539 1538 1537 1537 1536 1535 1534 1533 1532 1531 1530 1528 1527 1525 1523 1521 1519 1517
1541 1540 1541 1541 1542 1543 1543 1543 1544 1544 1544 1544 1544 1544 1544 1543 1543 1542 1541 1540 1539 1539 1538 1536 1536 1535 1534 1532 1532 1530 1529 1527 1525 1524 1522 1520 1518 1516
1543 1543 1543 1544 1545 1546 1546 1546 1546 1546 1546 1546 1545 1545 1545 1544 1543 1543 1542 1541 1540 1539 1538 1537 1536 1534 1533 1532 1532 1530 1528 1526 1524 1522 1520 1518 1516 1514
1545 1546 1546 1547 1548 1548 1548 1548 1548 1548 1547 1547 1546 1546 1545 1545 1544 1544 1543 1542 1541 1540 1539 1537 1536 1534 1533 1532 1531 1529 1528 1525 1523 1520 1518 1516 1514 1512
1549 1549 1550 1550 1550 1550 1550 1550 1550 1549 1549 1548 1548 1547 1547 1546 1546 1545 1544 1543 1542 1540 1539 1538 1537 1535 1534 1532 1531 1529 1527 1525 1522 1520 1517 1515 1512 1510
1552 1552 1553 1553 1553 1552 1552 1552 1551 1551 1550 1550 1549 1549 1548 1548 1547 1546 1545 1543 1542 1541 1540 1539 1537 1536 1534 1532 1530 1528 1526 1524 1522 1519 1517 1515 1512 1509
1555 1555 1555 1555 1554 1554 1554 1553 1553 1553 1552 1551 1551 1550 1550 1549 1548 1547 1546 1544 1543 1542 1540 1539 1537 1535 1533 1532 1530 1527 1525 1523 1520 1518 1516 1514 1512 1509